Flag for Mauritania Weather past 2 weeks in Nouadhibou, Mauritania

Now
64 °F

Duststorm.


Feels Like: 64 °F
Forecast: N/A
Wind: 12 mph from Northwest

Location: Nouadhibou Airport

Current Time: Dec 20, 2014 at 10:00:46 PM

Latest Report: Dec 20, 2014 at 9:00 PM


Visibility: 4 mi

Pressure: 30.12 "Hg

Humidity: 78%

Dew point: 57 °F

Location of NouadhibouLocation

Historic Weather in Nouadhibou — Graph

°F

Nouadhibou temperature yesterday

Maximum temperature yesterday: 79 °F (at 3:00 PM)
Minimum temperature yesterday: 63 °F (at 4:00 AM)
Average temperature yesterday: 69 °F

Past Weeks' High & Low Weather Summary

 TemperatureHumidityPressure
High84 °F (Dec 9, 2:00 PM)78% (Dec 9, 12:00 AM)30.27 "Hg (Dec 9, 12:00 AM)
Low59 °F (Dec 15, 8:00 AM)16% (Dec 9, 2:00 PM)29.92 "Hg (Dec 9, 3:00 PM)
Average69 °F49%30.08 "Hg
* Reported Dec 5 8:00 PM — Dec 20 8:00 PM, Nouadhibou, Weather by CustomWeather, © 2014

Note: Actual official high and low records may vary slightly from our data, if they occured in-between our weather recording intervals... More about our weather records

Advertising

Nouadhibou weather history for previous 24 hours

 ConditionsComfort  
Time TempWeatherWind HumidityBarometerVisibility
8:00 PM
Dec 20
66 °FDuststorm.14 mph64%30.09 "Hg4 mi
7:00 PM68 °FDuststorm.14 mph56%30.09 "Hg4 mi
6:00 PM70 °FDuststorm.13 mph50%30.09 "Hg4 mi
5:00 PM72 °FDuststorm.12 mph38%30.09 "Hg4 mi
4:00 PM79 °FDuststorm.7 mph18%30.09 "Hg4 mi
3:00 PM77 °FDuststorm.5 mph19%30.09 "Hg4 mi
2:00 PM75 °FDuststorm.9 mph21%30.12 "Hg4 mi
1:00 PM73 °FDuststorm.9 mph25%30.15 "Hg4 mi
12:00 PM70 °FDuststorm.12 mph33%30.18 "Hg4 mi
11:00 AM66 °FDuststorm.14 mph37%30.18 "Hg4 mi
10:00 AM64 °FDuststorm.16 mph40%30.18 "Hg4 mi
9:00 AM63 °FDuststorm.16 mph45%30.18 "Hg4 mi
8:00 AM61 °FDuststorm.16 mph45%30.15 "Hg4 mi
7:00 AM63 °FClear.16 mph42%30.12 "Hg5 mi
6:00 AM63 °FClear.16 mph45%30.12 "Hg5 mi
5:00 AM63 °FClear.14 mph45%30.12 "Hg5 mi
4:00 AM63 °FClear.14 mph49%30.12 "Hg5 mi
3:00 AM64 °FClear.14 mph46%30.15 "Hg5 mi
2:00 AM64 °FClear.14 mph46%30.15 "Hg5 mi
1:00 AM66 °FClear.18 mph43%30.15 "Hg5 mi
12:00 AM68 °FClear.18 mph38%30.15 "Hg5 mi
11:00 PM
Dec 19
68 °FClear.16 mph43%30.15 "Hg5 mi
10:00 PM68 °FClear.12 mph40%30.15 "Hg5 mi
Weather by CustomWeather, © 2014

See weather overviewHow to use our weather pages